Time,TemperatureF,DewpointF,PressureIn,WindDirection,WindDirectionDegrees,WindSpeedMPH,WindSpeedGustMPH,Humidity,HourlyPrecipIn,Conditions,Clouds,dailyrainin,SoftwareType,DateUTC
2013-06-11 00:00:00,59.9,59.3,30.01,ENE,69,6.0,13.0,98,0.20,,---,0.83,VWS V14.01,2013-06-11 04:00:00,
2013-06-11 00:01:00,59.9,59.3,30.01,East,89,3.0,5.0,98,0.18,,---,0.00,VWS V14.01,2013-06-11 04:01:00,
2013-06-11 00:07:00,60.0,59.4,30.00,East,86,5.0,11.0,98,0.17,,---,0.01,VWS V14.01,2013-06-11 04:07:00,
2013-06-11 00:12:00,60.1,59.5,30.00,ESE,110,4.0,11.0,98,0.14,,---,0.02,VWS V14.01,2013-06-11 04:12:00,
2013-06-11 00:17:00,60.1,59.5,30.00,East,85,2.0,11.0,98,0.14,,---,0.03,VWS V14.01,2013-06-11 04:17:00,
2013-06-11 00:22:00,60.0,59.4,29.99,ENE,72,5.0,12.0,98,0.14,,---,0.04,VWS V14.01,2013-06-11 04:22:00,
2013-06-11 00:27:00,60.1,59.5,29.99,ESE,118,6.0,11.0,98,0.13,,---,0.06,VWS V14.01,2013-06-11 04:27:00,
2013-06-11 00:32:00,60.1,59.5,29.98,ENE,70,3.0,11.0,98,0.13,,---,0.08,VWS V14.01,2013-06-11 04:32:00,
2013-06-11 00:37:00,60.2,59.6,29.98,East,83,9.0,14.0,98,0.13,,---,0.09,VWS V14.01,2013-06-11 04:37:00,
2013-06-11 00:42:00,60.2,59.6,29.98,North,352,2.0,11.0,98,0.14,,---,0.11,VWS V14.01,2013-06-11 04:42:00,
2013-06-11 00:47:00,60.2,59.6,29.98,ESE,104,10.0,10.0,98,0.16,,---,0.13,VWS V14.01,2013-06-11 04:47:00,
2013-06-11 00:52:00,60.3,59.7,29.98,SE,127,3.0,14.0,98,0.23,,---,0.21,VWS V14.01,2013-06-11 04:52:00,
2013-06-11 00:57:00,60.4,59.8,29.97,ESE,102,6.0,15.0,98,0.26,,---,0.25,VWS V14.01,2013-06-11 04:57:00,
2013-06-11 01:02:00,60.4,59.8,29.97,ESE,109,4.0,18.0,98,0.27,,---,0.27,VWS V14.01,2013-06-11 05:02:00,
2013-06-11 01:07:00,60.4,59.8,29.96,East,79,1.0,16.0,98,0.29,,---,0.29,VWS V14.01,2013-06-11 05:07:00,
2013-06-11 01:12:00,60.5,59.9,29.96,ESE,107,6.0,13.0,98,0.30,,---,0.31,VWS V14.01,2013-06-11 05:12:00,
2013-06-11 01:17:00,60.6,60.0,29.94,East,90,2.0,11.0,98,0.31,,---,0.33,VWS V14.01,2013-06-11 05:17:00,
2013-06-11 01:22:00,60.5,59.9,29.94,NE,54,12.0,20.0,98,0.34,,---,0.37,VWS V14.01,2013-06-11 05:22:00,
2013-06-11 01:27:00,60.5,59.9,29.93,ESE,107,6.0,14.0,98,0.36,,---,0.41,VWS V14.01,2013-06-11 05:27:00,
2013-06-11 01:32:00,60.5,59.9,29.93,ENE,75,5.0,17.0,98,0.41,,---,0.48,VWS V14.01,2013-06-11 05:32:00,
2013-06-11 01:37:00,60.7,60.1,29.93,ESE,104,3.0,11.0,98,0.45,,---,0.53,VWS V14.01,2013-06-11 05:37:00,
2013-06-11 01:42:00,60.9,60.3,29.93,SE,125,3.0,12.0,98,0.50,,---,0.60,VWS V14.01,2013-06-11 05:42:00,
2013-06-11 01:47:00,60.9,60.3,29.93,ENE,68,6.0,7.0,98,0.53,,---,0.65,VWS V14.01,2013-06-11 05:47:00,
2013-06-11 01:52:00,60.9,60.3,29.92,ESE,105,6.0,11.0,98,0.49,,---,0.69,VWS V14.01,2013-06-11 05:52:00,
2013-06-11 01:57:00,60.9,60.3,29.92,ENE,70,7.0,18.0,98,0.49,,---,0.72,VWS V14.01,2013-06-11 05:57:00,
2013-06-11 02:02:00,60.9,60.3,29.91,ESE,121,4.0,13.0,98,0.49,,---,0.75,VWS V14.01,2013-06-11 06:02:00,
2013-06-11 02:07:00,60.8,60.2,29.91,East,88,3.0,14.0,98,0.48,,---,0.77,VWS V14.01,2013-06-11 06:07:00,
2013-06-11 02:12:00,60.7,60.1,29.91,East,79,0.0,11.0,98,0.50,,---,0.80,VWS V14.01,2013-06-11 06:12:00,
2013-06-11 02:17:00,60.6,60.0,29.91,ENE,75,12.0,13.0,98,0.49,,---,0.81,VWS V14.01,2013-06-11 06:17:00,
2013-06-11 02:22:00,60.7,60.1,29.90,East,83,4.0,12.0,98,0.47,,---,0.83,VWS V14.01,2013-06-11 06:22:00,
2013-06-11 02:27:00,60.8,60.2,29.90,East,79,3.0,14.0,98,0.47,,---,0.85,VWS V14.01,2013-06-11 06:27:00,
2013-06-11 02:32:00,60.9,60.3,29.90,East,91,5.0,7.0,98,0.41,,---,0.86,VWS V14.01,2013-06-11 06:32:00,
2013-06-11 02:37:00,60.9,60.3,29.90,East,88,13.0,18.0,98,0.38,,---,0.89,VWS V14.01,2013-06-11 06:37:00,
2013-06-11 02:42:00,60.9,60.3,29.89,ESE,116,2.0,12.0,98,0.33,,---,0.90,VWS V14.01,2013-06-11 06:42:00,
2013-06-11 02:47:00,61.0,60.4,29.89,East,95,5.0,10.0,98,0.28,,---,0.91,VWS V14.01,2013-06-11 06:47:00,
2013-06-11 02:52:00,61.0,60.4,29.89,East,85,1.0,10.0,98,0.25,,---,0.92,VWS V14.01,2013-06-11 06:52:00,
2013-06-11 02:57:00,61.0,60.4,29.89,ENE,62,2.0,10.0,98,0.23,,---,0.93,VWS V14.01,2013-06-11 06:57:00,
2013-06-11 03:02:00,60.9,60.3,29.88,ENE,61,1.0,10.0,98,0.21,,---,0.95,VWS V14.01,2013-06-11 07:02:00,
2013-06-11 03:07:00,60.9,60.3,29.88,NE,55,6.0,12.0,98,0.20,,---,0.96,VWS V14.01,2013-06-11 07:07:00,
2013-06-11 03:12:00,61.0,60.7,29.88,East,95,3.0,7.0,99,0.18,,---,0.97,VWS V14.01,2013-06-11 07:12:00,
2013-06-11 03:17:00,61.1,60.8,29.87,East,87,2.0,9.0,99,0.16,,---,0.97,VWS V14.01,2013-06-11 07:17:00,
2013-06-11 03:22:00,61.2,60.9,29.87,ENE,77,2.0,9.0,99,0.16,,---,0.98,VWS V14.01,2013-06-11 07:22:00,
2013-06-11 03:27:00,61.3,61.0,29.86,East,89,3.0,7.0,99,0.15,,---,0.99,VWS V14.01,2013-06-11 07:27:00,
2013-06-11 03:32:00,61.5,61.2,29.86,ESE,109,5.0,10.0,99,0.14,,---,0.99,VWS V14.01,2013-06-11 07:32:00,
2013-06-11 03:37:00,61.8,61.5,29.85,ESE,110,1.0,7.0,99,0.12,,---,1.00,VWS V14.01,2013-06-11 07:37:00,
2013-06-11 03:42:00,62.0,61.7,29.85,ESE,108,2.0,6.0,99,0.11,,---,1.01,VWS V14.01,2013-06-11 07:42:00,
2013-06-11 03:47:00,62.3,62.0,29.85,ESE,108,2.0,6.0,99,0.13,,---,1.04,VWS V14.01,2013-06-11 07:47:00,
2013-06-11 03:52:00,62.5,62.2,29.85,East,100,2.0,4.0,99,0.13,,---,1.05,VWS V14.01,2013-06-11 07:52:00,
2013-06-11 03:57:00,62.6,62.3,29.85,ESE,110,1.0,4.0,99,0.12,,---,1.05,VWS V14.01,2013-06-11 07:57:00,
2013-06-11 04:02:00,62.8,62.5,29.85,ESE,122,5.0,6.0,99,0.12,,---,1.06,VWS V14.01,2013-06-11 08:02:00,
2013-06-11 04:07:00,62.9,62.6,29.85,SE,125,2.0,3.0,99,0.13,,---,1.08,VWS V14.01,2013-06-11 08:07:00,
2013-06-11 04:12:00,63.0,62.7,29.84,SE,125,2.0,4.0,99,0.12,,---,1.09,VWS V14.01,2013-06-11 08:12:00,
2013-06-11 04:17:00,63.1,62.8,29.84,SE,125,0.0,3.0,99,0.12,,---,1.09,VWS V14.01,2013-06-11 08:17:00,
2013-06-11 04:22:00,63.2,62.9,29.83,SE,124,1.0,4.0,99,0.11,,---,1.09,VWS V14.01,2013-06-11 08:22:00,
2013-06-11 04:27:00,63.2,62.9,29.83,ESE,123,1.0,3.0,99,0.11,,---,1.09,VWS V14.01,2013-06-11 08:27:00,
2013-06-11 04:32:00,63.3,63.0,29.83,SE,124,0.0,2.0,99,0.12,,---,1.11,VWS V14.01,2013-06-11 08:32:00,
2013-06-11 04:37:00,63.4,63.1,29.83,SE,141,0.0,3.0,99,0.13,,---,1.12,VWS V14.01,2013-06-11 08:37:00,
2013-06-11 04:42:00,63.5,63.2,29.83,SSE,147,0.0,3.0,99,0.12,,---,1.13,VWS V14.01,2013-06-11 08:42:00,
2013-06-11 04:47:00,63.5,63.2,29.83,SSE,149,0.0,3.0,99,0.12,,---,1.14,VWS V14.01,2013-06-11 08:47:00,
2013-06-11 04:52:00,63.5,63.2,29.82,SE,138,0.0,3.0,99,0.09,,---,1.14,VWS V14.01,2013-06-11 08:52:00,
2013-06-11 04:57:00,63.5,63.2,29.83,SE,138,0.0,2.0,99,0.10,,---,1.15,VWS V14.01,2013-06-11 08:57:00,
2013-06-11 05:02:00,63.5,63.2,29.82,SE,140,2.0,3.0,99,0.14,,---,1.19,VWS V14.01,2013-06-11 09:02:00,
2013-06-11 05:07:00,63.5,63.2,29.82,SE,139,2.0,4.0,99,0.13,,---,1.20,VWS V14.01,2013-06-11 09:07:00,
2013-06-11 05:12:00,63.5,63.2,29.82,SSE,157,0.0,4.0,99,0.12,,---,1.20,VWS V14.01,2013-06-11 09:12:00,
2013-06-11 05:17:00,63.5,63.2,29.82,SSE,157,2.0,3.0,99,0.11,,---,1.20,VWS V14.01,2013-06-11 09:17:00,
2013-06-11 05:22:00,63.5,63.2,29.81,SSE,164,2.0,3.0,99,0.11,,---,1.20,VWS V14.01,2013-06-11 09:22:00,
2013-06-11 05:27:00,63.5,63.2,29.81,SSE,166,1.0,5.0,99,0.14,,---,1.23,VWS V14.01,2013-06-11 09:27:00,
2013-06-11 05:32:00,63.5,63.2,29.81,SSE,165,1.0,3.0,99,0.15,,---,1.24,VWS V14.01,2013-06-11 09:32:00,
2013-06-11 05:38:00,63.5,63.2,29.81,SSE,168,0.0,6.0,99,0.12,,---,1.24,VWS V14.01,2013-06-11 09:38:00,
2013-06-11 05:43:00,63.5,63.2,29.81,SSE,168,0.0,4.0,99,0.12,,---,1.25,VWS V14.01,2013-06-11 09:43:00,
2013-06-11 05:48:00,63.5,63.2,29.81,SSE,160,1.0,5.0,99,0.11,,---,1.25,VWS V14.01,2013-06-11 09:48:00,
2013-06-11 05:53:00,63.5,63.2,29.80,SSE,166,2.0,4.0,99,0.12,,---,1.26,VWS V14.01,2013-06-11 09:53:00,
2013-06-11 05:58:00,63.5,63.2,29.80,SSE,165,1.0,4.0,99,0.12,,---,1.26,VWS V14.01,2013-06-11 09:58:00,
2013-06-11 06:03:00,63.5,63.2,29.80,SSE,162,2.0,4.0,99,0.11,,---,1.26,VWS V14.01,2013-06-11 10:03:00,
2013-06-11 06:08:00,63.5,63.2,29.80,SSE,165,2.0,4.0,99,0.07,,---,1.27,VWS V14.01,2013-06-11 10:08:00,
2013-06-11 06:13:00,63.6,63.3,29.79,South,170,1.0,4.0,99,0.07,,---,1.27,VWS V14.01,2013-06-11 10:13:00,
2013-06-11 06:18:00,63.7,63.4,29.79,South,175,1.0,5.0,99,0.07,,---,1.27,VWS V14.01,2013-06-11 10:18:00,
2013-06-11 06:23:00,63.8,63.5,29.78,SSW,195,4.0,9.0,99,0.07,,---,1.27,VWS V14.01,2013-06-11 10:23:00,
2013-06-11 06:28:00,64.0,63.7,29.78,SSW,196,4.0,7.0,99,0.05,,---,1.27,VWS V14.01,2013-06-11 10:28:00,
2013-06-11 06:33:00,64.0,63.7,29.78,SSW,193,3.0,7.0,99,0.03,,---,1.27,VWS V14.01,2013-06-11 10:33:00,
2013-06-11 06:38:00,64.0,63.7,29.78,SSW,195,2.0,14.0,99,0.03,,---,1.27,VWS V14.01,2013-06-11 10:38:00,
2013-06-11 06:43:00,63.9,63.6,29.78,SSW,195,3.0,7.0,99,0.03,,---,1.27,VWS V14.01,2013-06-11 10:43:00,
2013-06-11 06:48:00,63.7,63.4,29.78,SSW,195,2.0,11.0,99,0.02,,---,1.27,VWS V14.01,2013-06-11 10:48:00,
2013-06-11 06:53:00,63.5,63.2,29.77,SW,216,3.0,10.0,99,0.02,,---,1.27,VWS V14.01,2013-06-11 10:53:00,
2013-06-11 06:58:00,63.4,63.1,29.77,South,186,2.0,9.0,99,0.01,,---,1.27,VWS V14.01,2013-06-11 10:58:00,
2013-06-11 07:03:00,63.4,63.1,29.77,SSW,206,11.0,11.0,99,0.01,,---,1.27,VWS V14.01,2013-06-11 11:03:00,
2013-06-11 07:08:00,63.4,63.1,29.77,South,187,6.0,10.0,99,0.01,,---,1.27,VWS V14.01,2013-06-11 11:08:00,
2013-06-11 07:13:00,63.5,63.2,29.77,South,183,2.0,10.0,99,0.00,,---,1.27,VWS V14.01,2013-06-11 11:13:00,
2013-06-11 07:18:00,63.6,63.3,29.77,South,179,5.0,13.0,99,0.00,,---,1.27,VWS V14.01,2013-06-11 11:18:00,
2013-06-11 07:23:00,63.7,63.4,29.77,SW,219,6.0,13.0,99,0.00,,---,1.27,VWS V14.01,2013-06-11 11:23:00,
2013-06-11 07:28:00,63.6,63.3,29.77,SSW,206,3.0,15.0,99,0.00,,---,1.27,VWS V14.01,2013-06-11 11:28:00,
2013-06-11 07:33:00,63.6,63.3,29.77,SW,229,11.0,11.0,99,0.00,,---,1.27,VWS V14.01,2013-06-11 11:33:00,
2013-06-11 07:38:00,63.6,63.3,29.77,SW,218,5.0,12.0,99,0.00,,---,1.27,VWS V14.01,2013-06-11 11:38:00,
2013-06-11 07:43:00,63.6,63.3,29.77,South,186,2.0,13.0,99,0.00,,---,1.27,VWS V14.01,2013-06-11 11:43:00,
2013-06-11 07:48:00,63.5,63.2,29.77,SW,217,4.0,14.0,99,0.00,,---,1.27,VWS V14.01,2013-06-11 11:48:00,
2013-06-11 07:53:00,63.5,63.2,29.76,SW,218,6.0,13.0,99,0.00,,---,1.27,VWS V14.01,2013-06-11 11:53:00,
2013-06-11 07:58:00,63.5,63.2,29.76,South,187,7.0,18.0,99,0.00,,---,1.27,VWS V14.01,2013-06-11 11:58:00,
2013-06-11 08:03:00,63.4,63.1,29.76,SW,226,11.0,16.0,99,0.00,,---,1.27,VWS V14.01,2013-06-11 12:03:00,
2013-06-11 08:08:00,63.5,63.2,29.76,SSW,206,4.0,17.0,99,0.00,,---,1.27,VWS V14.01,2013-06-11 12:08:00,
2013-06-11 08:13:00,63.5,63.2,29.76,South,185,9.0,15.0,99,0.00,,---,1.27,VWS V14.01,2013-06-11 12:13:00,
2013-06-11 08:18:00,63.4,63.1,29.76,South,179,9.0,15.0,99,0.00,,---,1.27,VWS V14.01,2013-06-11 12:18:00,
2013-06-11 08:23:00,63.4,63.1,29.76,South,188,6.0,16.0,99,0.00,,---,1.27,VWS V14.01,2013-06-11 12:23:00,
2013-06-11 08:28:00,63.3,63.0,29.76,SSW,206,6.0,13.0,99,0.00,,---,1.27,VWS V14.01,2013-06-11 12:28:00,
2013-06-11 08:33:00,63.3,63.0,29.76,WSW,242,7.0,15.0,99,0.00,,---,1.27,VWS V14.01,2013-06-11 12:33:00,
2013-06-11 08:38:00,63.4,63.1,29.76,South,173,7.0,17.0,99,0.00,,---,1.27,VWS V14.01,2013-06-11 12:38:00,
2013-06-11 08:43:00,63.5,63.2,29.75,SSW,198,3.0,22.0,99,0.00,,---,1.27,VWS V14.01,2013-06-11 12:43:00,
2013-06-11 08:48:00,63.5,63.2,29.75,SW,231,13.0,19.0,99,0.00,,---,1.27,VWS V14.01,2013-06-11 12:48:00,
2013-06-11 08:53:00,63.4,63.1,29.75,WSW,238,10.0,19.0,99,0.00,,---,1.27,VWS V14.01,2013-06-11 12:53:00,
2013-06-11 08:58:00,63.3,63.0,29.75,SW,220,7.0,20.0,99,0.00,,---,1.27,VWS V14.01,2013-06-11 12:58:00,
2013-06-11 09:03:00,63.3,63.0,29.75,SSW,212,6.0,20.0,99,0.00,,---,1.27,VWS V14.01,2013-06-11 13:03:00,
2013-06-11 09:08:00,63.2,62.9,29.74,WSW,237,5.0,16.0,99,0.00,,---,1.27,VWS V14.01,2013-06-11 13:08:00,
2013-06-11 09:13:00,63.2,62.9,29.74,SSW,197,2.0,17.0,99,0.00,,---,1.27,VWS V14.01,2013-06-11 13:13:00,
2013-06-11 09:18:00,63.3,63.0,29.74,South,185,5.0,16.0,99,0.00,,---,1.27,VWS V14.01,2013-06-11 13:18:00,
2013-06-11 09:23:00,63.3,63.0,29.74,SW,222,7.0,22.0,99,0.00,,---,1.27,VWS V14.01,2013-06-11 13:23:00,
2013-06-11 09:28:00,63.3,63.0,29.74,SW,224,10.0,15.0,99,0.00,,---,1.27,VWS V14.01,2013-06-11 13:28:00,
2013-06-11 09:33:00,63.3,63.0,29.74,SSW,200,7.0,21.0,99,0.00,,---,1.27,VWS V14.01,2013-06-11 13:33:00,
2013-06-11 09:38:00,63.2,62.9,29.74,SSW,195,6.0,16.0,99,0.00,,---,1.27,VWS V14.01,2013-06-11 13:38:00,
2013-06-11 09:43:00,63.2,62.9,29.73,WSW,239,9.0,21.0,99,0.00,,---,1.27,VWS V14.01,2013-06-11 13:43:00,
2013-06-11 09:48:00,63.3,63.0,29.73,SW,233,6.0,18.0,99,0.00,,---,1.27,VWS V14.01,2013-06-11 13:48:00,
2013-06-11 09:53:00,63.3,63.0,29.73,SW,229,11.0,20.0,99,0.00,,---,1.27,VWS V14.01,2013-06-11 13:53:00,
2013-06-11 09:58:00,63.5,63.2,29.72,SW,220,3.0,13.0,99,0.00,,---,1.27,VWS V14.01,2013-06-11 13:58:00,
2013-06-11 10:03:00,63.6,63.3,29.72,SW,220,3.0,15.0,99,0.00,,---,1.27,VWS V14.01,2013-06-11 14:03:00,
2013-06-11 10:08:00,63.4,63.1,29.72,WSW,237,7.0,19.0,99,0.00,,---,1.27,VWS V14.01,2013-06-11 14:08:00,
2013-06-11 10:13:00,63.5,63.2,29.72,South,191,4.0,15.0,99,0.00,,---,1.27,VWS V14.01,2013-06-11 14:13:00,
2013-06-11 10:18:00,63.6,63.3,29.72,SW,235,9.0,11.0,99,0.00,,---,1.27,VWS V14.01,2013-06-11 14:18:00,
2013-06-11 10:23:00,63.7,63.4,29.73,SW,233,3.0,15.0,99,0.00,,---,1.27,VWS V14.01,2013-06-11 14:23:00,
2013-06-11 10:28:00,63.6,63.3,29.72,SW,225,8.0,18.0,99,0.00,,---,1.27,VWS V14.01,2013-06-11 14:28:00,
2013-06-11 10:33:00,63.5,63.2,29.72,SW,233,7.0,19.0,99,0.00,,---,1.27,VWS V14.01,2013-06-11 14:33:00,
2013-06-11 10:38:00,63.6,63.3,29.72,WSW,238,12.0,18.0,99,0.00,,---,1.27,VWS V14.01,2013-06-11 14:38:00,
2013-06-11 10:43:00,63.6,63.3,29.72,SW,226,7.0,15.0,99,0.00,,---,1.27,VWS V14.01,2013-06-11 14:43:00,
2013-06-11 10:48:00,63.8,63.5,29.72,SW,216,2.0,14.0,99,0.00,,---,1.27,VWS V14.01,2013-06-11 14:48:00,
2013-06-11 10:53:00,63.8,63.5,29.72,SW,225,8.0,21.0,99,0.00,,---,1.27,VWS V14.01,2013-06-11 14:53:00,
2013-06-11 10:58:00,63.8,63.5,29.72,SW,224,14.0,15.0,99,0.00,,---,1.27,VWS V14.01,2013-06-11 14:58:00,
2013-06-11 11:03:00,63.8,63.5,29.72,WSW,246,5.0,14.0,99,0.00,,---,1.27,VWS V14.01,2013-06-11 15:03:00,
2013-06-11 11:08:00,63.6,63.3,29.73,WSW,237,9.0,13.0,99,0.00,,---,1.27,VWS V14.01,2013-06-11 15:08:00,
2013-06-11 11:13:00,63.6,63.3,29.73,SW,215,2.0,12.0,99,0.00,,---,1.27,VWS V14.01,2013-06-11 15:13:00,
2013-06-11 11:18:00,63.6,63.3,29.73,SSW,208,7.0,16.0,99,0.00,,---,1.27,VWS V14.01,2013-06-11 15:18:00,
2013-06-11 11:23:00,63.6,63.3,29.72,SW,221,7.0,15.0,99,0.00,,---,1.27,VWS V14.01,2013-06-11 15:23:00,
2013-06-11 11:28:00,63.5,63.2,29.72,WSW,251,9.0,19.0,99,0.00,,---,1.27,VWS V14.01,2013-06-11 15:28:00,
2013-06-11 11:33:00,63.7,63.4,29.72,SW,228,18.0,19.0,99,0.00,,---,1.27,VWS V14.01,2013-06-11 15:33:00,
2013-06-11 11:38:00,63.6,63.3,29.72,SW,229,14.0,16.0,99,0.00,,---,1.27,VWS V14.01,2013-06-11 15:38:00,
2013-06-11 11:43:00,63.7,63.4,29.72,WSW,245,9.0,19.0,99,0.00,,---,1.27,VWS V14.01,2013-06-11 15:43:00,
2013-06-11 11:48:00,63.8,63.5,29.72,SSW,212,14.0,16.0,99,0.00,,---,1.27,VWS V14.01,2013-06-11 15:48:00,
2013-06-11 11:53:00,63.7,63.4,29.72,SW,235,11.0,19.0,99,0.00,,---,1.27,VWS V14.01,2013-06-11 15:53:00,
2013-06-11 11:58:00,63.8,63.5,29.72,SW,226,9.0,12.0,99,0.00,,---,1.27,VWS V14.01,2013-06-11 15:58:00,
2013-06-11 12:03:00,63.8,63.5,29.72,South,186,6.0,12.0,99,0.00,,---,1.27,VWS V14.01,2013-06-11 16:03:00,
2013-06-11 12:08:00,63.9,63.6,29.72,SSW,210,7.0,15.0,99,0.00,,---,1.27,VWS V14.01,2013-06-11 16:08:00,
2013-06-11 12:13:00,63.9,63.3,29.72,SW,225,6.0,18.0,98,0.00,,---,1.27,VWS V14.01,2013-06-11 16:13:00,
2013-06-11 12:19:00,64.0,63.4,29.72,South,181,6.0,15.0,98,0.00,,---,1.27,VWS V14.01,2013-06-11 16:19:00,
2013-06-11 12:23:00,63.9,63.3,29.72,SW,224,9.0,14.0,98,0.00,,---,1.27,VWS V14.01,2013-06-11 16:23:00,
2013-06-11 12:29:00,63.8,63.2,29.72,SW,219,7.0,22.0,98,0.00,,---,1.27,VWS V14.01,2013-06-11 16:29:00,
2013-06-11 12:34:00,63.6,62.7,29.72,SSW,193,5.0,15.0,97,0.00,,---,1.27,VWS V14.01,2013-06-11 16:34:00,
2013-06-11 12:39:00,63.4,62.5,29.72,SSW,196,4.0,12.0,97,0.00,,---,1.27,VWS V14.01,2013-06-11 16:39:00,
2013-06-11 12:44:00,63.7,63.1,29.72,SW,226,7.0,15.0,98,0.00,,---,1.27,VWS V14.01,2013-06-11 16:44:00,
2013-06-11 12:49:00,64.0,63.1,29.72,SW,218,5.0,17.0,97,0.00,,---,1.27,VWS V14.01,2013-06-11 16:49:00,
2013-06-11 12:54:00,64.3,63.4,29.72,SSW,212,6.0,15.0,97,0.00,,---,1.27,VWS V14.01,2013-06-11 16:54:00,
2013-06-11 12:59:00,64.4,63.2,29.71,SW,222,7.0,18.0,96,0.00,,---,1.27,VWS V14.01,2013-06-11 16:59:00,
2013-06-11 13:04:00,64.4,63.2,29.71,SSW,201,8.0,17.0,96,0.00,,---,1.27,VWS V14.01,2013-06-11 17:04:00,
2013-06-11 13:09:00,64.5,63.3,29.71,SSW,198,5.0,15.0,96,0.00,,---,1.27,VWS V14.01,2013-06-11 17:09:00,
2013-06-11 13:14:00,64.8,63.3,29.70,SSW,212,5.0,16.0,95,0.00,,---,1.27,VWS V14.01,2013-06-11 17:14:00,
2013-06-11 13:19:00,64.8,63.3,29.70,SSW,201,7.0,14.0,95,0.00,,---,1.27,VWS V14.01,2013-06-11 17:19:00,
2013-06-11 13:24:00,64.8,63.3,29.70,SW,218,7.0,16.0,95,0.00,,---,1.27,VWS V14.01,2013-06-11 17:24:00,
2013-06-11 13:29:00,64.9,63.4,29.70,WSW,237,12.0,16.0,95,0.00,,---,1.27,VWS V14.01,2013-06-11 17:29:00,
2013-06-11 13:34:00,65.0,63.5,29.70,SSW,192,3.0,17.0,95,0.00,,---,1.27,VWS V14.01,2013-06-11 17:34:00,
2013-06-11 13:39:00,65.4,63.9,29.70,South,191,6.0,15.0,95,0.00,,---,1.27,VWS V14.01,2013-06-11 17:39:00,
2013-06-11 13:44:00,65.5,64.0,29.69,SW,231,10.0,15.0,95,0.00,,---,1.27,VWS V14.01,2013-06-11 17:44:00,
2013-06-11 13:49:00,65.5,63.7,29.69,SSW,210,6.0,15.0,94,0.00,,---,1.27,VWS V14.01,2013-06-11 17:49:00,
2013-06-11 13:54:00,65.5,63.7,29.69,SSW,204,3.0,12.0,94,0.00,,---,1.27,VWS V14.01,2013-06-11 17:54:00,
2013-06-11 13:59:00,65.5,64.0,29.69,SW,220,6.0,13.0,95,0.00,,---,1.27,VWS V14.01,2013-06-11 17:59:00,
2013-06-11 14:04:00,65.6,63.8,29.69,SW,220,9.0,20.0,94,0.00,,---,1.27,VWS V14.01,2013-06-11 18:04:00,
2013-06-11 14:09:00,65.7,63.6,29.69,WSW,240,2.0,12.0,93,0.00,,---,1.27,VWS V14.01,2013-06-11 18:09:00,
2013-06-11 14:14:00,65.5,63.7,29.69,SW,231,2.0,15.0,94,0.00,,---,1.27,VWS V14.01,2013-06-11 18:14:00,
2013-06-11 14:19:00,65.6,63.8,29.68,WSW,245,7.0,15.0,94,0.00,,---,1.27,VWS V14.01,2013-06-11 18:19:00,
2013-06-11 14:24:00,65.7,63.9,29.69,SSW,202,3.0,11.0,94,0.00,,---,1.27,VWS V14.01,2013-06-11 18:24:00,
2013-06-11 14:29:00,65.8,64.0,29.68,SSW,197,7.0,16.0,94,0.00,,---,1.27,VWS V14.01,2013-06-11 18:29:00,
2013-06-11 14:34:00,65.6,63.5,29.68,South,188,4.0,10.0,93,0.00,,---,1.27,VWS V14.01,2013-06-11 18:34:00,
2013-06-11 14:39:00,65.7,63.9,29.68,South,179,10.0,13.0,94,0.00,,---,1.27,VWS V14.01,2013-06-11 18:39:00,
2013-06-11 14:44:00,65.4,63.3,29.68,SSW,203,3.0,16.0,93,0.00,,---,1.27,VWS V14.01,2013-06-11 18:44:00,
2013-06-11 14:49:00,65.3,63.5,29.68,SSW,199,3.0,14.0,94,0.00,,---,1.27,VWS V14.01,2013-06-11 18:49:00,
2013-06-11 14:54:00,65.4,63.6,29.68,South,185,3.0,6.0,94,0.00,,---,1.27,VWS V14.01,2013-06-11 18:54:00,
2013-06-11 14:59:00,65.6,63.8,29.67,SW,220,4.0,13.0,94,0.00,,---,1.27,VWS V14.01,2013-06-11 18:59:00,
2013-06-11 15:04:00,65.4,63.6,29.67,SSW,209,6.0,15.0,94,0.00,,---,1.27,VWS V14.01,2013-06-11 19:04:00,
2013-06-11 15:09:00,65.4,63.6,29.67,South,189,4.0,17.0,94,0.00,,---,1.27,VWS V14.01,2013-06-11 19:09:00,
2013-06-11 15:14:00,65.6,63.8,29.67,SSW,193,4.0,10.0,94,0.00,,---,1.27,VWS V14.01,2013-06-11 19:14:00,
2013-06-11 15:19:00,65.7,63.6,29.67,SW,218,2.0,15.0,93,0.00,,---,1.27,VWS V14.01,2013-06-11 19:19:00,
2013-06-11 15:24:00,65.4,63.3,29.67,SSW,205,2.0,14.0,93,0.00,,---,1.27,VWS V14.01,2013-06-11 19:24:00,
2013-06-11 15:29:00,65.4,63.6,29.67,SSW,208,7.0,10.0,94,0.00,,---,1.27,VWS V14.01,2013-06-11 19:29:00,
2013-06-11 15:34:00,65.3,63.5,29.67,SSW,199,5.0,10.0,94,0.00,,---,1.27,VWS V14.01,2013-06-11 19:34:00,
2013-06-11 15:39:00,65.3,63.5,29.66,South,177,3.0,12.0,94,0.00,,---,1.27,VWS V14.01,2013-06-11 19:39:00,
2013-06-11 15:44:00,65.2,63.4,29.66,SSW,195,3.0,7.0,94,0.00,,---,1.27,VWS V14.01,2013-06-11 19:44:00,
2013-06-11 15:49:00,65.1,63.3,29.66,SSW,202,6.0,12.0,94,0.00,,---,1.27,VWS V14.01,2013-06-11 19:49:00,
2013-06-11 15:54:00,65.0,63.2,29.66,South,189,4.0,11.0,94,0.00,,---,1.27,VWS V14.01,2013-06-11 19:54:00,
2013-06-11 15:59:00,64.9,63.1,29.66,SW,215,5.0,14.0,94,0.00,,---,1.27,VWS V14.01,2013-06-11 19:59:00,
2013-06-11 16:04:00,65.0,63.5,29.66,SW,214,5.0,14.0,95,0.00,,---,1.27,VWS V14.01,2013-06-11 20:04:00,
2013-06-11 16:09:00,65.1,63.3,29.66,South,184,3.0,17.0,94,0.00,,---,1.27,VWS V14.01,2013-06-11 20:09:00,
2013-06-11 16:14:00,65.1,63.3,29.65,South,191,2.0,10.0,94,0.00,,---,1.27,VWS V14.01,2013-06-11 20:14:00,
2013-06-11 16:19:00,65.2,63.4,29.65,SW,222,6.0,12.0,94,0.00,,---,1.27,VWS V14.01,2013-06-11 20:19:00,
2013-06-11 16:24:00,65.2,63.4,29.65,SW,220,6.0,17.0,94,0.00,,---,1.27,VWS V14.01,2013-06-11 20:24:00,
2013-06-11 16:29:00,65.0,62.9,29.65,SW,216,5.0,12.0,93,0.00,,---,1.27,VWS V14.01,2013-06-11 20:29:00,
2013-06-11 16:34:00,64.8,63.0,29.65,South,189,10.0,17.0,94,0.00,,---,1.27,VWS V14.01,2013-06-11 20:34:00,
2013-06-11 16:39:00,64.9,63.4,29.65,SSW,212,6.0,16.0,95,0.00,,---,1.27,VWS V14.01,2013-06-11 20:39:00,
2013-06-11 16:44:00,65.0,63.2,29.65,SW,233,7.0,15.0,94,0.00,,---,1.27,VWS V14.01,2013-06-11 20:44:00,
2013-06-11 16:49:00,65.1,63.3,29.65,South,183,6.0,14.0,94,0.00,,---,1.27,VWS V14.01,2013-06-11 20:49:00,
2013-06-11 16:54:00,65.0,63.2,29.64,SW,223,4.0,13.0,94,0.00,,---,1.27,VWS V14.01,2013-06-11 20:54:00,
2013-06-11 16:59:00,65.2,63.4,29.64,South,177,2.0,17.0,94,0.00,,---,1.27,VWS V14.01,2013-06-11 20:59:00,
2013-06-11 17:04:00,65.4,63.6,29.64,WSW,239,7.0,7.0,94,0.00,,---,1.27,VWS V14.01,2013-06-11 21:04:00,
2013-06-11 17:09:00,65.4,63.6,29.64,SW,219,10.0,11.0,94,0.00,,---,1.27,VWS V14.01,2013-06-11 21:09:00,
2013-06-11 17:14:00,65.5,63.7,29.63,SW,224,2.0,12.0,94,0.00,,---,1.27,VWS V14.01,2013-06-11 21:14:00,
2013-06-11 17:19:00,65.4,63.6,29.63,SSW,207,7.0,14.0,94,0.00,,---,1.27,VWS V14.01,2013-06-11 21:19:00,
2013-06-11 17:24:00,65.3,63.5,29.63,WSW,238,7.0,20.0,94,0.00,,---,1.27,VWS V14.01,2013-06-11 21:24:00,
2013-06-11 17:29:00,65.0,63.2,29.63,SSW,192,12.0,21.0,94,0.00,,---,1.27,VWS V14.01,2013-06-11 21:29:00,
2013-06-11 17:34:00,64.8,63.3,29.63,SW,218,6.0,16.0,95,0.00,,---,1.27,VWS V14.01,2013-06-11 21:34:00,
2013-06-11 17:39:00,64.8,63.3,29.63,SW,224,6.0,15.0,95,0.00,,---,1.27,VWS V14.01,2013-06-11 21:39:00,
2013-06-11 17:44:00,64.5,62.7,29.63,South,177,7.0,13.0,94,0.00,,---,1.27,VWS V14.01,2013-06-11 21:44:00,
2013-06-11 17:49:00,63.9,62.4,29.63,SW,215,7.0,12.0,95,0.00,,---,1.27,VWS V14.01,2013-06-11 21:49:00,
2013-06-11 17:54:00,63.6,62.4,29.62,SSW,212,4.0,10.0,96,0.00,,---,1.27,VWS V14.01,2013-06-11 21:54:00,
2013-06-11 17:59:00,63.3,62.1,29.62,SW,228,11.0,21.0,96,0.00,,---,1.27,VWS V14.01,2013-06-11 21:59:00,
2013-06-11 18:04:00,63.2,62.3,29.62,SSW,212,4.0,14.0,97,0.00,,---,1.27,VWS V14.01,2013-06-11 22:04:00,
2013-06-11 18:09:00,63.2,62.3,29.62,SSW,203,3.0,13.0,97,0.00,,---,1.27,VWS V14.01,2013-06-11 22:09:00,
2013-06-11 18:14:00,63.2,62.3,29.62,South,180,5.0,15.0,97,0.00,,---,1.27,VWS V14.01,2013-06-11 22:14:00,
2013-06-11 18:19:00,63.2,62.3,29.62,SW,220,6.0,19.0,97,0.00,,---,1.27,VWS V14.01,2013-06-11 22:19:00,
2013-06-11 18:24:00,63.2,62.3,29.62,SW,216,6.0,15.0,97,0.00,,---,1.27,VWS V14.01,2013-06-11 22:24:00,
2013-06-11 18:29:00,63.2,62.3,29.62,SSW,204,9.0,12.0,97,0.00,,---,1.27,VWS V14.01,2013-06-11 22:29:00,
2013-06-11 18:34:00,63.2,62.3,29.62,SSW,212,5.0,18.0,97,0.00,,---,1.27,VWS V14.01,2013-06-11 22:34:00,
2013-06-11 18:39:00,63.3,62.4,29.62,South,181,5.0,13.0,97,0.00,,---,1.27,VWS V14.01,2013-06-11 22:39:00,
2013-06-11 18:44:00,63.4,62.5,29.62,SSW,204,4.0,16.0,97,0.01,,---,1.28,VWS V14.01,2013-06-11 22:44:00,
2013-06-11 18:49:00,63.4,62.8,29.62,SW,227,5.0,20.0,98,0.03,,---,1.30,VWS V14.01,2013-06-11 22:49:00,
2013-06-11 18:54:00,63.6,63.0,29.62,SSW,202,5.0,16.0,98,0.07,,---,1.34,VWS V14.01,2013-06-11 22:54:00,
2013-06-11 18:59:00,63.6,63.0,29.62,WSW,237,6.0,14.0,98,0.08,,---,1.35,VWS V14.01,2013-06-11 22:59:00,
2013-06-11 19:04:00,63.5,62.9,29.62,SW,216,5.0,15.0,98,0.11,,---,1.38,VWS V14.01,2013-06-11 23:04:00,
2013-06-11 19:09:00,63.6,63.0,29.62,SW,220,3.0,16.0,98,0.13,,---,1.40,VWS V14.01,2013-06-11 23:09:00,
2013-06-11 19:14:00,63.5,62.9,29.61,South,183,4.0,12.0,98,0.16,,---,1.43,VWS V14.01,2013-06-11 23:14:00,
2013-06-11 19:19:00,63.4,62.8,29.61,SW,222,6.0,13.0,98,0.17,,---,1.44,VWS V14.01,2013-06-11 23:19:00,
2013-06-11 19:24:00,63.2,62.6,29.61,SSW,206,4.0,10.0,98,0.18,,---,1.45,VWS V14.01,2013-06-11 23:24:00,
2013-06-11 19:30:00,63.1,62.5,29.60,South,180,5.0,11.0,98,0.18,,---,1.45,VWS V14.01,2013-06-11 23:30:00,
2013-06-11 19:34:00,63.0,62.4,29.60,SSW,192,5.0,6.0,98,0.18,,---,1.45,VWS V14.01,2013-06-11 23:34:00,
2013-06-11 19:39:00,62.9,62.3,29.59,South,179,4.0,7.0,98,0.19,,---,1.46,VWS V14.01,2013-06-11 23:39:00,
2013-06-11 19:44:00,62.9,62.3,29.59,SSW,205,4.0,9.0,98,0.19,,---,1.46,VWS V14.01,2013-06-11 23:44:00,
2013-06-11 19:50:00,62.9,62.3,29.59,SSW,202,4.0,14.0,98,0.18,,---,1.46,VWS V14.01,2013-06-11 23:50:00,
2013-06-11 19:55:00,62.9,62.3,29.59,SW,214,3.0,11.0,98,0.15,,---,1.46,VWS V14.01,2013-06-11 23:55:00,
2013-06-11 20:00:00,63.0,62.7,29.59,SW,222,9.0,15.0,99,0.12,,---,1.46,VWS V14.01,2013-06-12 00:00:00,
2013-06-11 20:05:00,63.2,62.9,29.59,WSW,250,13.0,23.0,99,0.11,,---,1.46,VWS V14.01,2013-06-12 00:05:00,
2013-06-11 20:10:00,63.3,63.0,29.58,SSW,210,5.0,19.0,99,0.08,,---,1.46,VWS V14.01,2013-06-12 00:10:00,
2013-06-11 20:15:00,63.4,63.1,29.58,SW,218,6.0,16.0,99,0.05,,---,1.46,VWS V14.01,2013-06-12 00:15:00,
2013-06-11 20:20:00,63.4,62.8,29.58,SW,233,7.0,22.0,98,0.04,,---,1.47,VWS V14.01,2013-06-12 00:20:00,
2013-06-11 20:25:00,63.3,62.7,29.58,SW,224,11.0,16.0,98,0.06,,---,1.50,VWS V14.01,2013-06-12 00:25:00,
2013-06-11 20:30:00,63.2,62.6,29.58,WSW,239,13.0,23.0,98,0.05,,---,1.50,VWS V14.01,2013-06-12 00:30:00,
2013-06-11 20:35:00,63.2,62.6,29.58,SW,224,6.0,26.0,98,0.05,,---,1.50,VWS V14.01,2013-06-12 00:35:00,
2013-06-11 20:40:00,63.2,62.6,29.57,SW,231,13.0,21.0,98,0.05,,---,1.50,VWS V14.01,2013-06-12 00:40:00,
2013-06-11 20:45:00,63.2,62.6,29.57,SSW,199,2.0,24.0,98,0.04,,---,1.50,VWS V14.01,2013-06-12 00:45:00,
2013-06-11 20:50:00,63.2,62.6,29.57,SW,220,19.0,30.0,98,0.04,,---,1.50,VWS V14.01,2013-06-12 00:50:00,
2013-06-11 20:55:00,63.4,62.8,29.57,WSW,247,14.0,23.0,98,0.04,,---,1.50,VWS V14.01,2013-06-12 00:55:00,
2013-06-11 21:00:00,63.5,63.2,29.58,SW,234,18.0,26.0,99,0.04,,---,1.50,VWS V14.01,2013-06-12 01:00:00,
2013-06-11 21:05:00,63.7,63.4,29.58,SW,225,11.0,27.0,99,0.04,,---,1.50,VWS V14.01,2013-06-12 01:05:00,
2013-06-11 21:10:00,63.7,63.1,29.58,SW,235,21.0,23.0,98,0.04,,---,1.50,VWS V14.01,2013-06-12 01:10:00,
2013-06-11 21:15:00,63.8,63.2,29.58,WSW,249,6.0,26.0,98,0.04,,---,1.50,VWS V14.01,2013-06-12 01:15:00,
2013-06-11 21:20:00,63.9,63.3,29.58,WSW,254,16.0,22.0,98,0.04,,---,1.50,VWS V14.01,2013-06-12 01:20:00,
2013-06-11 21:25:00,64.0,63.4,29.59,WSW,253,7.0,18.0,98,0.03,,---,1.50,VWS V14.01,2013-06-12 01:25:00,
2013-06-11 21:30:00,64.1,63.5,29.59,West,264,3.0,18.0,98,0.00,,---,1.50,VWS V14.01,2013-06-12 01:30:00,
2013-06-11 21:35:00,64.2,63.6,29.59,SSW,199,9.0,17.0,98,0.00,,---,1.50,VWS V14.01,2013-06-12 01:35:00,
2013-06-11 21:40:00,64.4,63.8,29.60,WSW,249,0.0,16.0,98,0.00,,---,1.50,VWS V14.01,2013-06-12 01:40:00,
2013-06-11 21:45:00,64.5,63.9,29.61,WNW,285,3.0,15.0,98,0.00,,---,1.50,VWS V14.01,2013-06-12 01:45:00,
2013-06-11 21:50:00,64.6,64.0,29.61,WNW,294,9.0,17.0,98,0.00,,---,1.50,VWS V14.01,2013-06-12 01:50:00,
2013-06-11 21:55:00,64.1,63.2,29.62,WNW,300,9.0,12.0,97,0.00,,---,1.50,VWS V14.01,2013-06-12 01:55:00,
2013-06-11 22:00:00,63.3,61.8,29.62,West,281,2.0,14.0,95,0.00,,---,1.50,VWS V14.01,2013-06-12 02:00:00,
2013-06-11 22:05:00,62.7,61.2,29.62,WNW,301,2.0,12.0,95,0.00,,---,1.50,VWS V14.01,2013-06-12 02:05:00,
2013-06-11 22:10:00,62.2,60.8,29.62,NW,323,5.0,13.0,95,0.00,,---,1.50,VWS V14.01,2013-06-12 02:10:00,
2013-06-11 22:15:00,61.4,60.0,29.62,NW,309,0.0,12.0,95,0.00,,---,1.50,VWS V14.01,2013-06-12 02:15:00,
2013-06-11 22:20:00,60.9,59.5,29.62,NNW,332,5.0,12.0,95,0.00,,---,1.50,VWS V14.01,2013-06-12 02:20:00,
2013-06-11 22:25:00,60.2,58.8,29.63,WNW,303,4.0,9.0,95,0.00,,---,1.50,VWS V14.01,2013-06-12 02:25:00,
2013-06-11 22:30:00,59.6,58.5,29.63,NNW,341,3.0,9.0,96,0.00,,---,1.50,VWS V14.01,2013-06-12 02:30:00,
2013-06-11 22:35:00,59.1,58.0,29.63,NW,312,5.0,8.0,96,0.00,,---,1.50,VWS V14.01,2013-06-12 02:35:00,
2013-06-11 22:40:00,58.6,57.5,29.63,NNW,334,2.0,6.0,96,0.00,,---,1.50,VWS V14.01,2013-06-12 02:40:00,
2013-06-11 22:45:00,58.2,56.8,29.63,NNW,333,1.0,6.0,95,0.00,,---,1.50,VWS V14.01,2013-06-12 02:45:00,
2013-06-11 22:50:00,57.7,56.6,29.63,NW,319,2.0,9.0,96,0.00,,---,1.50,VWS V14.01,2013-06-12 02:50:00,
2013-06-11 22:55:00,57.4,56.3,29.63,NW,316,1.0,8.0,96,0.00,,---,1.50,VWS V14.01,2013-06-12 02:55:00,
2013-06-11 23:00:00,57.2,56.1,29.63,NW,317,2.0,5.0,96,0.00,,---,1.50,VWS V14.01,2013-06-12 03:00:00,
2013-06-11 23:05:00,57.1,56.0,29.63,NW,316,2.0,4.0,96,0.00,,---,1.50,VWS V14.01,2013-06-12 03:05:00,
2013-06-11 23:10:00,57.1,56.0,29.63,NW,316,0.0,5.0,96,0.00,,---,1.50,VWS V14.01,2013-06-12 03:10:00,
2013-06-11 23:15:00,57.0,56.2,29.63,NW,317,0.0,3.0,97,0.00,,---,1.50,VWS V14.01,2013-06-12 03:15:00,
2013-06-11 23:20:00,56.9,56.1,29.63,NW,316,1.0,3.0,97,0.00,,---,1.50,VWS V14.01,2013-06-12 03:20:00,
2013-06-11 23:25:00,56.9,56.1,29.63,NW,316,1.0,4.0,97,0.00,,---,1.50,VWS V14.01,2013-06-12 03:25:00,
2013-06-11 23:30:00,56.9,56.1,29.63,NW,317,2.0,5.0,97,0.00,,---,1.50,VWS V14.01,2013-06-12 03:30:00,
2013-06-11 23:35:00,56.8,56.0,29.63,NW,316,0.0,1.0,97,0.00,,---,1.50,VWS V14.01,2013-06-12 03:35:00,
2013-06-11 23:40:00,56.8,56.0,29.63,NW,317,1.0,4.0,97,0.00,,---,1.50,VWS V14.01,2013-06-12 03:40:00,
2013-06-11 23:45:00,56.7,55.9,29.63,NW,316,2.0,4.0,97,0.00,,---,1.50,VWS V14.01,2013-06-12 03:45:00,
2013-06-11 23:50:00,56.6,55.8,29.63,NW,316,0.0,2.0,97,0.00,,---,1.50,VWS V14.01,2013-06-12 03:50:00,
2013-06-11 23:55:00,56.7,55.9,29.63,NW,316,2.0,2.0,97,0.00,,---,1.50,VWS V14.01,2013-06-12 03:55:00,